OMA8511 EDDF-EGLL

Flight info

Callsign OMA8511
Flight time N/A
Altitude 36000
Route OBOKA2E/07C OBOKA Z29 TORNU DCT ABNED L980 LOGAN
Aircraft B739/M-SDE2E3FGHIRWXY/LB1

Departure

Time 2026-05-07 19:28
Airport Frankfurt Main Airport (EDDF)

Arrival

Time N/A
Airport London Heathrow Airport (EGLL)
Time Latitude Longitude Altitude Speed Heading
2026-05-07 18:55 50.04578 8.56627 368 ft 0 kts 114°
2026-05-07 18:57 50.04534 8.56579 367 ft 0 kts 114°
2026-05-07 19:16 50.04538 8.56566 367 ft 2 kts 114°
2026-05-07 19:16 50.04544 8.56546 367 ft 2 kts 114°
2026-05-07 19:16 50.04551 8.56524 367 ft 2 kts 114°
2026-05-07 19:17 50.04557 8.56502 367 ft 2 kts 115°
2026-05-07 19:17 50.04563 8.56481 367 ft 2 kts 114°
2026-05-07 19:17 50.04573 8.56465 367 ft 2 kts 167°
2026-05-07 19:17 50.04585 8.56465 367 ft 0 kts 201°
2026-05-07 19:18 50.04591 8.56471 367 ft 0 kts 205°
2026-05-07 19:18 50.04592 8.56471 367 ft 0 kts 205°
2026-05-07 19:21 50.04559 8.56447 366 ft 10 kts 205°
2026-05-07 19:21 50.04506 8.56348 364 ft 14 kts 249°
2026-05-07 19:21 50.04465 8.56183 363 ft 16 kts 250°
2026-05-07 19:21 50.04443 8.56093 363 ft 0 kts 250°
2026-05-07 19:22 50.04435 8.56064 363 ft 6 kts 243°
2026-05-07 19:22 50.04387 8.56034 362 ft 9 kts 169°
2026-05-07 19:22 50.04317 8.56070 360 ft 10 kts 172°
2026-05-07 19:22 50.04246 8.56042 358 ft 11 kts 195°
2026-05-07 19:23 50.04173 8.56067 356 ft 11 kts 160°
2026-05-07 19:23 50.04102 8.56097 353 ft 10 kts 198°
2026-05-07 19:23 50.04062 8.56003 352 ft 10 kts 249°
2026-05-07 19:23 50.04031 8.55880 350 ft 15 kts 249°
2026-05-07 19:24 50.03988 8.55703 350 ft 18 kts 250°
2026-05-07 19:24 50.03939 8.55500 350 ft 21 kts 250°
2026-05-07 19:24 50.03890 8.55293 349 ft 18 kts 250°
2026-05-07 19:24 50.03848 8.55115 347 ft 16 kts 250°
2026-05-07 19:25 50.03808 8.54945 344 ft 16 kts 250°
2026-05-07 19:25 50.03765 8.54764 342 ft 19 kts 250°
2026-05-07 19:25 50.03713 8.54553 339 ft 21 kts 249°
2026-05-07 19:25 50.03659 8.54330 338 ft 22 kts 250°
2026-05-07 19:26 50.03607 8.54108 341 ft 21 kts 250°
2026-05-07 19:26 50.03554 8.53882 342 ft 21 kts 250°
2026-05-07 19:26 50.03501 8.53669 344 ft 18 kts 249°
2026-05-07 19:26 50.03463 8.53505 343 ft 13 kts 249°
2026-05-07 19:27 50.03398 8.53459 339 ft 11 kts 149°
2026-05-07 19:27 50.03332 8.53553 338 ft 14 kts 136°
2026-05-07 19:27 50.03310 8.53673 337 ft 10 kts 68°
2026-05-07 19:27 50.03339 8.53787 336 ft 25 kts 68°
2026-05-07 19:28 50.03499 8.54447 335 ft 120 kts 69°
2026-05-07 19:28 50.03904 8.56100 553 ft 190 kts 69°
2026-05-07 19:28 50.04411 8.58188 1240 ft 229 kts 69°
2026-05-07 19:28 50.05020 8.60523 2652 ft 232 kts 60°
2026-05-07 19:29 50.05955 8.62277 4212 ft 214 kts 38°
2026-05-07 19:29 50.07264 8.63404 5035 ft 227 kts 18°
2026-05-07 19:29 50.08831 8.63750 5025 ft 233 kts
2026-05-07 19:29 50.10447 8.63575 4934 ft 232 kts 355°
2026-05-07 19:30 50.12105 8.63345 5295 ft 257 kts 356°
2026-05-07 19:30 50.13850 8.63180 6869 ft 253 kts 355°
2026-05-07 19:30 50.15514 8.63068 8374 ft 248 kts 355°
2026-05-07 19:30 50.17221 8.62966 9537 ft 254 kts 354°
2026-05-07 19:31 50.18989 8.62853 10615 ft 262 kts 353°
2026-05-07 19:31 50.20826 8.62722 11647 ft 272 kts 353°
2026-05-07 19:31 50.22701 8.62581 12698 ft 278 kts 352°
2026-05-07 19:31 50.24628 8.62440 13801 ft 282 kts 352°
2026-05-07 19:32 50.26577 8.62302 14787 ft 288 kts 352°
2026-05-07 19:32 50.28608 8.62100 15040 ft 294 kts 347°
2026-05-07 19:32 50.30533 8.61375 15046 ft 278 kts 332°
2026-05-07 19:32 50.32188 8.59911 15050 ft 269 kts 315°
2026-05-07 19:33 50.33382 8.57744 15055 ft 261 kts 297°
2026-05-07 19:33 50.34163 8.55213 15054 ft 259 kts 289°
2026-05-07 19:33 50.34769 8.52543 15132 ft 265 kts 286°
2026-05-07 19:33 50.35336 8.49814 16181 ft 267 kts 285°
2026-05-07 19:34 50.35901 8.47127 17383 ft 263 kts 285°
2026-05-07 19:34 50.36478 8.44413 18403 ft 265 kts 286°
2026-05-07 19:34 50.37054 8.41731 19411 ft 265 kts 286°
2026-05-07 19:34 50.37569 8.38990 20350 ft 266 kts 280°
2026-05-07 19:35 50.37778 8.36155 21264 ft 266 kts 269°
2026-05-07 19:35 50.37556 8.33325 22145 ft 269 kts 259°
2026-05-07 19:35 50.37074 8.30563 22775 ft 280 kts 255°
2026-05-07 19:35 50.36440 8.27460 22849 ft 310 kts 254°
2026-05-07 19:36 50.35738 8.24096 22932 ft 338 kts 254°
2026-05-07 19:36 50.34999 8.20511 23567 ft 350 kts 255°
2026-05-07 19:36 50.34257 8.16883 24409 ft 355 kts 255°
2026-05-07 19:36 50.33505 8.13191 25330 ft 358 kts 255°
2026-05-07 19:37 50.32753 8.09485 26190 ft 362 kts 255°
2026-05-07 19:37 50.31988 8.05708 27044 ft 365 kts 256°
2026-05-07 19:37 50.31223 8.01931 27856 ft 369 kts 256°
2026-05-07 19:37 50.30526 7.98067 28636 ft 370 kts 260°
2026-05-07 19:38 50.30130 7.94093 29505 ft 368 kts 268°
2026-05-07 19:38 50.30146 7.90140 30492 ft 363 kts 276°
2026-05-07 19:38 50.30679 7.86329 31443 ft 359 kts 286°
2026-05-07 19:38 50.31536 7.82716 32406 ft 355 kts 290°
2026-05-07 19:39 50.32507 7.79185 33280 ft 351 kts 291°
2026-05-07 19:39 50.33496 7.75737 34142 ft 346 kts 291°
2026-05-07 19:39 50.34548 7.72370 34839 ft 346 kts 296°
2026-05-07 19:39 50.35868 7.69215 35511 ft 349 kts 303°
2026-05-07 19:40 50.37535 7.66434 36002 ft 356 kts 313°
2026-05-07 19:40 50.39622 7.64207 36052 ft 373 kts 322°
2026-05-07 19:40 50.44386 7.60716 36049 ft 378 kts 327°
2026-05-07 19:41 50.49223 7.57449 36053 ft 377 kts 327°
2026-05-07 19:41 50.53958 7.54168 36058 ft 375 kts 325°
2026-05-07 19:42 50.58435 7.50155 36066 ft 368 kts 320°
2026-05-07 19:42 50.62731 7.45846 36070 ft 368 kts 319°
2026-05-07 19:43 50.66980 7.41520 36074 ft 367 kts 319°
2026-05-07 19:43 50.71218 7.37138 36073 ft 365 kts 317°
2026-05-07 19:44 50.74839 7.31863 36072 ft 352 kts 301°
2026-05-07 19:44 50.77318 7.25306 36075 ft 347 kts 294°
2026-05-07 19:45 50.79493 7.18569 36074 ft 347 kts 293°
2026-05-07 19:45 50.81682 7.11757 36074 ft 349 kts 293°
2026-05-07 19:46 50.83884 7.04929 36074 ft 352 kts 292°
2026-05-07 19:46 50.86119 6.98001 36074 ft 354 kts 292°
2026-05-07 19:47 50.88347 6.91086 36074 ft 355 kts 292°
2026-05-07 19:47 50.90578 6.84151 36073 ft 352 kts 292°
2026-05-07 19:48 50.92784 6.77274 36074 ft 349 kts 291°
2026-05-07 19:48 50.94966 6.70455 36074 ft 346 kts 291°
2026-05-07 19:49 50.97029 6.63418 36011 ft 361 kts 296°
2026-05-07 19:49 50.99434 6.56221 36008 ft 381 kts 300°
2026-05-07 19:50 51.02063 6.48725 36005 ft 401 kts 298°
2026-05-07 19:50 51.04575 6.40668 36000 ft 421 kts 296°
2026-05-07 19:51 51.07144 6.32249 35999 ft 434 kts 296°
2026-05-07 19:51 51.09809 6.23627 35999 ft 433 kts 296°
2026-05-07 19:52 51.12413 6.15067 35999 ft 432 kts 294°
2026-05-07 19:52 51.14407 6.06054 36001 ft 433 kts 286°
2026-05-07 19:53 51.16036 5.96804 35999 ft 433 kts 285°
2026-05-07 19:53 51.17616 5.87565 35999 ft 433 kts 286°
2026-05-07 19:54 51.19640 5.78574 36001 ft 433 kts 292°
2026-05-07 19:54 51.21952 5.69714 36000 ft 433 kts 293°
2026-05-07 19:55 51.24274 5.60875 35999 ft 433 kts 293°
2026-05-07 19:55 51.26593 5.52017 36000 ft 433 kts 293°
2026-05-07 19:56 51.28920 5.43104 36000 ft 433 kts 293°
2026-05-07 19:56 51.31223 5.34244 36000 ft 433 kts 292°
2026-05-07 19:57 51.33524 5.25365 35999 ft 433 kts 292°
2026-05-07 19:57 51.35813 5.16494 35999 ft 433 kts 292°
2026-05-07 19:58 51.38103 5.07583 36000 ft 433 kts 292°
2026-05-07 19:58 51.40375 4.98709 36000 ft 433 kts 292°
2026-05-07 19:59 51.42665 4.89733 36000 ft 433 kts 292°
2026-05-07 19:59 51.44916 4.80870 36000 ft 433 kts 292°
2026-05-07 20:00 51.47180 4.71924 36000 ft 433 kts 292°
2026-05-07 20:00 51.49434 4.62980 35999 ft 433 kts 292°
2026-05-07 20:01 51.51675 4.54050 36000 ft 433 kts 292°
2026-05-07 20:01 51.53919 4.45075 35999 ft 433 kts 292°
2026-05-07 20:02 51.56150 4.36114 35999 ft 433 kts 292°
2026-05-07 20:02 51.58381 4.27117 36000 ft 433 kts 291°
2026-05-07 20:03 51.60602 4.18126 36000 ft 433 kts 291°
2026-05-07 20:03 51.62800 4.09191 36000 ft 433 kts 291°
2026-05-07 20:04 51.65011 4.00166 35999 ft 433 kts 291°
2026-05-07 20:04 51.67207 3.91166 36000 ft 433 kts 291°
2026-05-07 20:05 51.69404 3.82125 35999 ft 433 kts 291°
2026-05-07 20:05 51.71583 3.73119 35999 ft 433 kts 291°
2026-05-07 20:06 51.73752 3.64119 35999 ft 433 kts 291°
2026-05-07 20:06 51.75918 3.55094 35999 ft 433 kts 291°
2026-05-07 20:07 51.78084 3.46032 35999 ft 433 kts 291°
2026-05-07 20:07 51.80239 3.36979 35999 ft 433 kts 291°
2026-05-07 20:08 51.82390 3.27901 36000 ft 433 kts 290°
2026-05-07 20:08 51.84126 3.18634 35999 ft 433 kts 280°
2026-05-07 20:09 51.84309 3.08921 36005 ft 433 kts 265°
2026-05-07 20:10 51.83424 2.94436 35999 ft 433 kts 264°
2026-05-07 20:10 51.82793 2.84773 35999 ft 433 kts 264°
2026-05-07 20:11 51.82148 2.75095 35999 ft 433 kts 264°
2026-05-07 20:11 51.81499 2.65421 35966 ft 431 kts 264°
2026-05-07 20:11 51.81204 2.60667 35188 ft 430 kts 264°
2026-05-07 20:12 51.80896 2.55868 34144 ft 431 kts 264°
2026-05-07 20:12 51.80574 2.51078 33147 ft 430 kts 264°
2026-05-07 20:12 51.80241 2.46303 32001 ft 433 kts 264°
2026-05-07 20:12 51.80215 2.41429 30733 ft 436 kts 279°
2026-05-07 20:13 51.81070 2.36750 29496 ft 437 kts 295°
2026-05-07 20:13 51.82476 2.32468 28333 ft 436 kts 300°
2026-05-07 20:13 51.83994 2.28290 27999 ft 431 kts 300°
2026-05-07 20:13 51.85556 2.24022 28003 ft 444 kts 300°
2026-05-07 20:14 51.87117 2.19754 27995 ft 448 kts 300°
2026-05-07 20:14 51.88715 2.15380 27996 ft 449 kts 300°
2026-05-07 20:14 51.90292 2.11060 27999 ft 449 kts 300°
2026-05-07 20:14 51.91882 2.06701 27998 ft 448 kts 300°
2026-05-07 20:15 51.93461 2.02368 27999 ft 448 kts 300°
2026-05-07 20:15 51.95017 1.98093 27981 ft 431 kts 300°
2026-05-07 20:15 51.96480 1.94069 27996 ft 394 kts 301°
2026-05-07 20:15 51.97838 1.90333 28008 ft 382 kts 301°
2026-05-07 20:16 51.99162 1.86687 27994 ft 377 kts 301°
2026-05-07 20:16 52.00485 1.83038 27402 ft 374 kts 301°
2026-05-07 20:16 52.01796 1.79421 26507 ft 375 kts 301°
2026-05-07 20:16 52.03102 1.75814 25661 ft 375 kts 301°
2026-05-07 20:17 52.04412 1.72196 25056 ft 366 kts 301°
2026-05-07 20:17 52.05685 1.68674 24997 ft 356 kts 301°
2026-05-07 20:17 52.06958 1.65150 25007 ft 364 kts 301°
2026-05-07 20:17 52.08244 1.61587 24998 ft 365 kts 301°
2026-05-07 20:18 52.09524 1.58039 24998 ft 363 kts 301°
2026-05-07 20:18 52.10800 1.54497 24999 ft 363 kts 301°
2026-05-07 20:18 52.12065 1.50984 24999 ft 363 kts 301°
2026-05-07 20:18 52.13337 1.47452 24999 ft 363 kts 301°
2026-05-07 20:19 52.14624 1.43871 25000 ft 363 kts 301°
2026-05-07 20:19 52.15887 1.40354 24999 ft 363 kts 301°
2026-05-07 20:19 52.17184 1.36829 24996 ft 363 kts 306°
2026-05-07 20:19 52.19017 1.34061 24994 ft 362 kts 331°
2026-05-07 20:20 52.21399 1.32867 25002 ft 363 kts 356°
2026-05-07 20:20 52.23893 1.33491 25001 ft 364 kts 22°
2026-05-07 20:20 52.25942 1.35782 25001 ft 363 kts 48°
2026-05-07 20:20 52.27201 1.39372 25001 ft 363 kts 74°
2026-05-07 20:21 52.27548 1.43411 25015 ft 364 kts 87°
2026-05-07 20:21 52.27585 1.47595 25000 ft 364 kts 90°
2026-05-07 20:21 52.27573 1.51671 24996 ft 363 kts 90°
2026-05-07 20:21 52.27557 1.55819 24998 ft 363 kts 90°
2026-05-07 20:22 52.27539 1.59906 24999 ft 363 kts 90°
2026-05-07 20:22 52.27520 1.64004 24999 ft 363 kts 90°
2026-05-07 20:22 52.27500 1.68166 24998 ft 363 kts 91°
2026-05-07 20:22 52.27480 1.72273 24999 ft 363 kts 90°
2026-05-07 20:23 52.27460 1.76377 24999 ft 363 kts 90°
2026-05-07 20:23 52.27412 1.80518 24995 ft 363 kts 96°
2026-05-07 20:23 52.26678 1.84397 24994 ft 362 kts 121°
2026-05-07 20:23 52.24969 1.87396 25002 ft 363 kts 147°
2026-05-07 20:24 52.22664 1.88880 25004 ft 364 kts 171°
2026-05-07 20:24 52.20123 1.89186 25009 ft 364 kts 179°
2026-05-07 20:24 52.17600 1.89192 24998 ft 363 kts 180°
2026-05-07 20:24 52.15071 1.89313 24994 ft 363 kts 174°
2026-05-07 20:25 52.12594 1.89875 25001 ft 363 kts 171°
2026-05-07 20:25 52.10097 1.90541 24999 ft 363 kts 171°
2026-05-07 20:25 52.07593 1.91220 24998 ft 363 kts 171°
2026-05-07 20:25 52.05119 1.91891 24999 ft 363 kts 171°
2026-05-07 20:26 52.02613 1.92570 24999 ft 363 kts 171°
2026-05-07 20:26 52.00125 1.93243 24999 ft 363 kts 171°
2026-05-07 20:26 51.97643 1.93915 24999 ft 363 kts 171°
2026-05-07 20:26 51.95145 1.94589 25000 ft 363 kts 171°
2026-05-07 20:27 51.92653 1.95262 24999 ft 363 kts 171°
2026-05-07 20:27 51.90198 1.95924 25000 ft 363 kts 171°
2026-05-07 20:27 51.87672 1.96507 24992 ft 363 kts 178°
2026-05-07 20:27 51.85190 1.96197 25005 ft 363 kts 188°
2026-05-07 20:28 51.82715 1.95511 25002 ft 363 kts 190°
2026-05-07 20:28 51.80218 1.94765 24999 ft 363 kts 191°
2026-05-07 20:28 51.77754 1.94023 24999 ft 363 kts 191°
2026-05-07 20:28 51.75268 1.93273 24999 ft 363 kts 191°
2026-05-07 20:29 51.72924 1.91898 24988 ft 362 kts 213°
2026-05-07 20:29 51.71124 1.89056 24987 ft 360 kts 234°
2026-05-07 20:29 51.69792 1.85730 24324 ft 359 kts 239°
2026-05-07 20:29 51.68553 1.82258 23588 ft 355 kts 240°
2026-05-07 20:30 51.67341 1.78808 22919 ft 351 kts 240°
2026-05-07 20:30 51.66155 1.75429 22228 ft 348 kts 240°
2026-05-07 20:30 51.64986 1.72098 21559 ft 344 kts 240°
2026-05-07 20:30 51.63811 1.68754 20878 ft 340 kts 240°
2026-05-07 20:31 51.62655 1.65466 20208 ft 337 kts 240°
2026-05-07 20:31 51.61523 1.62247 19548 ft 333 kts 240°
2026-05-07 20:31 51.60524 1.58911 18830 ft 331 kts 256°
2026-05-07 20:31 51.60249 1.55279 18233 ft 325 kts 269°
2026-05-07 20:32 51.60228 1.51642 17533 ft 323 kts 270°
2026-05-07 20:32 51.60240 1.48096 16884 ft 320 kts 271°
2026-05-07 20:32 51.60255 1.44498 16234 ft 317 kts 271°
2026-05-07 20:32 51.60270 1.41020 15996 ft 308 kts 271°
2026-05-07 20:33 51.60284 1.37556 16007 ft 316 kts 271°
2026-05-07 20:33 51.60299 1.33994 15997 ft 316 kts 270°
2026-05-07 20:33 51.60312 1.30454 15997 ft 316 kts 270°
2026-05-07 20:33 51.60255 1.26939 15999 ft 316 kts 267°